Weather in Vilhena

Brazil     12°43′18″S   60°06′27″W
temp.,
°C
wind,
m/s
gust,
m/s
humid.,
%
clouds,
%
prec.,
mm/h
press.,
hPa
HPBL,
m
29 june, wed
wed2923:00+19s11700 0.0 101718
02:00+17sse11700 0.0 101712
05:00+16se11730 0.0 101711
08:00+21sse12561 0.0 1018118
11:00+29s233484 0.0 10171926
14:00+31ese112798 0.0 10142474
17:00+26se1145100 0.0 101212
20:00+20sw2262100 0.0 101422
30 june, thu
thu3023:00+18sw116941 0.0 101411
02:00+17ssw00707 0.0 101411
05:00+16se117210 0.0 101411
08:00+22e11530 0.0 101591
11:00+29ne24326 0.0 10141536
14:00+32nne232742 0.0 10112513
17:00+27nne114270 0.0 101011
20:00+21sw115868 0.0 101311
1 july, fri
fri123:00+20wnw016268 0.0 101411
02:00+18n00655 0.0 101311
05:00+18ne006644 0.0 101311
08:00+23ne015241 0.0 101488
11:00+31ne26311 0.0 10132007
14:00+33n34270 0.0 10102861
17:00+29nnw243847 0.0 100991
20:00+24nw125280 0.0 101143
2 july, sat
sat223:00+21nnw116559 0.0 101215
02:00+20n11694 0.0 101116
05:00+20nnw116726 0.0 101216
08:00+25nnw13535 0.0 1014151
11:00+32n26331 0.0 10131956
14:00+34n342827 0.0 10103009
17:00+30nnw234092 0.0 101064
20:00+26nw1150100 0.0 101217
3 july, sun
sun323:00+25nne115544 0.0 101413
02:00+24ene115610 0.0 101325
05:00+22w11633 0.0 101411
08:00+27n11513 0.0 1015123
11:00+32ene34350 0.0 10161771
14:00+34ene33285 0.0 10122779
17:00+30e25362 0.0 1012199
20:00+24n114815 0.0 101411